Location: Marsån
(66.4167°N, 22.2833°E)
Time: 10:49:31
(UTC+00:00)

Meteor 1-11 Rocket - Pass Details

Date: 24 February 2024
Orbit: 830 x 915 km, 81.2° (Epoch: 15 April)

Event Time Altitude Azimuth Distance (km) Brightness Sun altitude
Exits shadow 22:48:49 50° 318° (NW) 1,148 4.5 -33.0°
Drops below altitude 10° 22:54:18 10° 22° (NNE) 2,615 7.0 -32.9°
Sets 22:56:53 0° 28° (NNE) 3,565 7.8 -32.9°
